ベーティン彗星

85D/Boethin (2008)

English version
Home page
Updated on July 22, 2020

---------------------------------------------------------------------

・ プロフィール

・ 軌道要素

The following orbital elements are taken from MPC 54171:

Epoch 2008 Nov. 30.0 TT = JDT 2454800.5
T 2008 Dec. 16.3648 TT                                  MPC
q   1.147474             (2000.0)            P               Q
n   0.0854166      Peri.   53.5814      +0.7976724      -0.6027272
a   5.106319       Node   343.4512      +0.5271172      +0.7136402
e   0.775283       Incl.    4.2171      +0.2930295      +0.3569840
P  11.5
From 44 observations 1975-1986, mean residual 1".2.

・ 星図

・ 光度変化

        m1 = 23.0 + 5 logΔ + 10.0 log r

        ※ 灰色の曲線は、m1 = 5.0 + 5 logΔ + 40 log r の光度曲線です。

---------------------------------------------------------------------

軌道要素はMPCのEphemerides and Orbital Elementsに掲載されたものです。
星図は StellaNavigator Ver.2.0 for Windows (アストロアーツ 編著 / アスキー出版局刊) で作成したものです。
光度グラフはComet for Windowsで作成したものです。

---------------------------------------------------------------------

Copyright(C) Seiichi Yoshida (comet@aerith.net). All rights reserved.